Calgary Springbank,

3:56 AM MST on November 19, 2017 (GMT -0700)
Calgary Springbank

Weather History for CYBW - May, 2013

Change the Weather History Date:

Friday, May 3, 2013

  Actual Average Record
Temperature  
Mean Temperature 47 °F -  
Max Temperature 59 °F 56 °F 80 °F (2016)
Min Temperature 35 °F 34 °F 17 °F (2002)
Degree Days  
Heating Degree Days 18    
Moisture  
Dew Point 30 °F    
Average Humidity 52    
Maximum Humidity 100    
Minimum Humidity 21    
Precipitation  
Precipitation 0.04 in - - ()
Sea Level Pressure  
Sea Level Pressure 30.36 in    
Wind  
Wind Speed 7 mph ()    
Max Wind Speed 17 mph    
Max Gust Speed 20 mph    
Visibility 18.5 miles    
Events Rain    
Averages and records for this station are not official NWS values.
T = Trace of Precipitation, MM = Missing Value Source: Averaged Metar Reports

Daily Weather History Graph

Daily Weather History Graph

Search for Another Location

Airport or City:

Trip Planner

Search our weather history database for the weather conditions in past years. The results will help you decide how hot, cold, wet, or windy it might be!

Date:

Astronomy

May. 03, 2013 Rise Set
Actual Time 6:06 AM MDT 9:03 PM MDT
Civil Twilight 5:28 AM MDT 9:41 PM MDT
Nautical Twilight 4:38 AM MDT 10:31 PM MDT
Astronomical Twilight 3:36 AM MDT 11:35 PM MDT
Moon 3:15 AM MDT (5/3) 2:22 PM MDT (5/3)
Length of Visible Light 16h 13m
Length of Day
14h 57m
Last Quarter, 36% of the Moon is Illuminated
May 3
Last Quarter
May 9
New
May 17
First Quarter
May 24
Full
May 31
Last Quarter

Hourly Weather History & Observations

Time (MDT) Temp. Windchill Dew Point Humidity Pressure Visibility Wind Dir Wind Speed Gust Speed Precip Events Conditions
5:00 AM 39.2 °F 33.6 °F 37.4 °F 93% 30.34 in 15.0 mi West 8.1 mph - N/A Rain Light Rain
6:00 AM 38 °F - 36 °F 91% 30.36 in 19 mi NNW 5.8 mph - - Rain Light Rain
6:00 AM 37.4 °F 32.8 °F 35.6 °F 93% 30.35 in 20.0 mi NNW 5.8 mph - N/A   Overcast
7:00 AM 35.6 °F 31.7 °F 35.6 °F 100% 30.38 in 30.0 mi NW 4.6 mph - N/A   Mostly Cloudy
8:00 AM 42.8 °F 38.6 °F 39.2 °F 87% 30.38 in 30.0 mi NNW 6.9 mph - N/A   Mostly Cloudy
9:00 AM 46.4 °F 41.9 °F 35.6 °F 66% 30.38 in 30.0 mi NNW 9.2 mph - N/A   Mostly Cloudy
10:00 AM 50.0 °F - 32.0 °F 50% 30.37 in 30.0 mi North 17.3 mph - N/A   Scattered Clouds
11:00 AM 51.8 °F - 30.2 °F 44% 30.35 in 30.0 mi NNW 9.2 mph - N/A   Mostly Cloudy
12:00 PM 51 °F - 29 °F 31% 30.36 in 28 mi North 11.5 mph - -   Partly Cloudy
12:00 PM 50.0 °F - 30.2 °F 47% 30.36 in 30.0 mi NNW 11.5 mph 18.4 mph N/A   Mostly Cloudy
1:00 PM 51.8 °F - 28.4 °F 41% 30.36 in 30.0 mi NNW 8.1 mph - N/A   Mostly Cloudy
2:00 PM 53.6 °F - 26.6 °F 35% 30.35 in 30.0 mi NNW 3.5 mph - N/A   Mostly Cloudy
3:00 PM 57.2 °F - - N/A% 30.34 in 30.0 mi NW 3.5 mph - N/A   Mostly Cloudy
4:00 PM 57.2 °F - 26.6 °F 31% 30.33 in 30.0 mi NE 10.4 mph - N/A   Mostly Cloudy
5:00 PM 57.2 °F - 26.6 °F 31% 30.33 in 30.0 mi NE 5.8 mph - N/A   Mostly Cloudy
5:37 PM 57.2 °F - 26.6 °F 31% 30.33 in 30.0 mi NNE 12.7 mph - N/A   Mostly Cloudy
6:00 PM 56 °F - 27 °F 21% 30.34 in 28 mi NE 9.2 mph - -   Partly Cloudy
6:00 PM 57.2 °F - 26.6 °F 31% 30.34 in 30.0 mi NE 6.9 mph - N/A   Mostly Cloudy
7:00 PM 55.4 °F - 26.6 °F 33% 30.36 in 30.0 mi NE 11.5 mph 17.3 mph N/A   Mostly Cloudy
8:00 PM 51.8 °F - 26.6 °F 38% 30.38 in 30.0 mi NE 13.8 mph 19.6 mph N/A   Mostly Cloudy
9:00 PM 44.6 °F 42.2 °F 24.8 °F 46% 30.40 in 25.0 mi ENE 4.6 mph - N/A   Scattered Clouds
10:00 PM 41.0 °F - 24.8 °F 53% 30.35 in 20.0 mi Calm Calm - N/A   Scattered Clouds